Location: Unspecified
(0.0000°N, 0.0000°E)
Time: 23:53:43
(UTC+02:00)

Iridium 84 - Visible Passes

Search period start: 05 May 2016 00:00
Search period end: 15 May 2016 00:00
Orbit: 776 x 779 km, 86.4° (Epoch: 05 May)

Date Brightness Start Highest point End Pass type
(mag) Time Alt. Az. Time Alt. Az. Time Alt. Az.
05 May 6.2 22:02:47 39° SW 22:04:14 51° W 22:09:16 10° NNW visible
06 May 5.4 21:27:22 22° S 21:30:46 71° E 21:35:57 10° N visible
07 May 6.2 20:52:43 10° SSE 20:57:19 31° E 21:01:52 10° NNE visible
07 May 8.3 22:35:04 10° WSW 22:37:43 14° W 22:40:24 10° WNW visible
08 May 7.1 20:21:10 10° ESE 20:23:52 14° E 20:26:32 10° ENE visible
08 May 7.2 21:59:42 10° SSW 22:04:17 31° W 22:08:50 10° NNW visible
09 May 5.7 21:25:38 10° S 21:30:49 71° W 21:36:00 10° N visible
10 May 5.6 20:52:19 10° SSE 20:57:22 51° E 21:02:24 10° NNE visible
11 May 6.6 20:19:50 10° SE 20:23:55 23° E 20:27:57 10° NE visible
11 May 8.0 22:00:39 10° SW 22:04:20 20° W 22:08:00 10° NW visible
12 May 6.7 21:25:57 10° SSW 21:30:52 43° W 21:35:47 10° NNW visible
13 May 5.5 20:52:11 10° S 20:57:25 84° E 21:02:37 10° N visible
14 May 6.1 20:19:11 10° SSE 20:23:57 37° E 20:28:43 10° NNE visible
14 May 8.5 22:02:35 10° WSW 22:04:22 12° W 22:06:09 10° WNW visible
